owner,sensor,date,latitude,longitude,vertical_datum,sea_water_temperature,qcFlag
BP,ioos:station:wmo:42369:4,2022-06-01T00:00:00Z,27.2143,-90.2838,1342.0,4.3,11113222
BP,ioos:station:wmo:42369:4,2022-06-01T00:20:00Z,27.2142,-90.2843,1342.0,4.3,11113222
BP,ioos:station:wmo:42369:4,2022-06-01T00:40:00Z,27.2142,-90.2846,1342.0,4.3,11113222
BP,ioos:station:wmo:42369:4,2022-06-01T01:00:00Z,27.2142,-90.2846,1342.0,4.3,11113222
BP,ioos:station:wmo:42369:4,2022-06-01T01:20:00Z,27.2142,-90.2848,1342.0,4.3,11113222
BP,ioos:station:wmo:42369:4,2022-06-01T01:40:00Z,27.2142,-90.2849,1342.0,4.3,11113222
BP,ioos:station:wmo:42369:4,2022-06-01T02:00:00Z,27.2142,-90.2850,1342.0,4.3,11113222
BP,ioos:station:wmo:42369:4,2022-06-01T02:20:00Z,27.2142,-90.2850,1342.0,4.3,11113222
BP,ioos:station:wmo:42369:4,2022-06-01T02:40:00Z,27.2142,-90.2851,1342.0,4.3,11113222
BP,ioos:station:wmo:42369:4,2022-06-01T03:00:00Z,27.2141,-90.2853,1342.0,4.3,11113222
BP,ioos:station:wmo:42369:4,2022-06-01T03:20:00Z,27.2141,-90.2854,1342.0,4.3,11113222
BP,ioos:station:wmo:42369:4,2022-06-01T03:40:00Z,27.2141,-90.2854,1342.0,4.3,11113222
BP,ioos:station:wmo:42369:4,2022-06-01T04:00:00Z,27.2140,-90.2859,1342.0,4.3,11113222
BP,ioos:station:wmo:42369:4,2022-06-01T04:20:00Z,27.2140,-90.2859,1342.0,4.3,11113222
BP,ioos:station:wmo:42369:4,2022-06-01T04:40:00Z,27.2140,-90.2861,1342.0,4.3,11113222
BP,ioos:station:wmo:42369:4,2022-06-01T05:00:00Z,27.2140,-90.2862,1342.0,4.3,11113222
BP,ioos:station:wmo:42369:4,2022-06-01T05:20:00Z,27.2139,-90.2865,1342.0,4.3,11113222
BP,ioos:station:wmo:42369:4,2022-06-01T05:40:00Z,27.2139,-90.2866,1342.0,4.3,11113222
BP,ioos:station:wmo:42369:4,2022-06-01T06:00:00Z,27.2138,-90.2867,1342.0,4.3,11113222
BP,ioos:station:wmo:42369:4,2022-06-01T06:20:00Z,27.2139,-90.2867,1342.0,4.3,11113222
BP,ioos:station:wmo:42369:4,2022-06-01T06:40:00Z,27.2139,-90.2868,1342.0,4.3,11113222
BP,ioos:station:wmo:42369:4,2022-06-01T07:00:00Z,27.2138,-90.2869,1342.0,4.3,11113222
BP,ioos:station:wmo:42369:4,2022-06-01T07:20:00Z,27.2137,-90.2869,1342.0,4.3,11113222
BP,ioos:station:wmo:42369:4,2022-06-01T07:40:00Z,27.2137,-90.2869,1342.0,4.3,11113222
BP,ioos:station:wmo:42369:4,2022-06-01T08:00:00Z,27.2137,-90.2869,1342.0,4.3,11113222
BP,ioos:station:wmo:42369:4,2022-06-01T08:20:00Z,27.2137,-90.2869,1342.0,4.3,11113222
BP,ioos:station:wmo:42369:4,2022-06-01T08:40:00Z,27.2138,-90.2867,1342.0,4.3,11113222
BP,ioos:station:wmo:42369:4,2022-06-01T09:00:00Z,27.2139,-90.2866,1342.0,4.3,11113222
BP,ioos:station:wmo:42369:4,2022-06-01T09:20:00Z,27.2139,-90.2866,1342.0,4.3,11113222
BP,ioos:station:wmo:42369:4,2022-06-01T09:40:00Z,27.2139,-90.2866,1342.0,4.3,11113222
BP,ioos:station:wmo:42369:4,2022-06-01T10:00:00Z,27.2139,-90.2866,1342.0,4.3,11113222
BP,ioos:station:wmo:42369:4,2022-06-01T10:20:00Z,27.2139,-90.2866,1342.0,4.3,11113222
BP,ioos:station:wmo:42369:4,2022-06-01T10:40:00Z,27.2140,-90.2864,1342.0,4.3,11113222
BP,ioos:station:wmo:42369:4,2022-06-01T11:00:00Z,27.2140,-90.2863,1342.0,4.3,11113222
BP,ioos:station:wmo:42369:4,2022-06-01T11:20:00Z,27.2140,-90.2863,1342.0,4.3,11113222
BP,ioos:station:wmo:42369:4,2022-06-01T11:40:00Z,27.2140,-90.2863,1342.0,4.3,11113222
BP,ioos:station:wmo:42369:4,2022-06-01T12:00:00Z,27.2140,-90.2862,1342.0,4.3,11113222
BP,ioos:station:wmo:42369:4,2022-06-01T12:20:00Z,27.2140,-90.2861,1342.0,4.3,11113222
BP,ioos:station:wmo:42369:4,2022-06-01T12:40:00Z,27.2140,-90.2860,1342.0,4.3,11113222
BP,ioos:station:wmo:42369:4,2022-06-01T13:00:00Z,27.2140,-90.2860,1342.0,4.3,11113222
BP,ioos:station:wmo:42369:4,2022-06-01T13:20:00Z,27.2141,-90.2858,1342.0,4.3,11113222
BP,ioos:station:wmo:42369:4,2022-06-01T13:40:00Z,27.2141,-90.2858,1342.0,4.3,11113222
BP,ioos:station:wmo:42369:4,2022-06-01T14:00:00Z,27.2141,-90.2856,1342.0,4.3,11113222
BP,ioos:station:wmo:42369:4,2022-06-01T14:20:00Z,27.2141,-90.2856,1342.0,4.3,11113222
BP,ioos:station:wmo:42369:4,2022-06-01T14:40:00Z,27.2141,-90.2856,1342.0,4.3,11113222
BP,ioos:station:wmo:42369:4,2022-06-01T15:00:00Z,27.2141,-90.2855,1342.0,4.3,11113222
BP,ioos:station:wmo:42369:4,2022-06-01T15:20:00Z,27.2140,-90.2854,1342.0,4.3,11113222
BP,ioos:station:wmo:42369:4,2022-06-01T15:40:00Z,27.2140,-90.2855,1342.0,4.3,11113222
BP,ioos:station:wmo:42369:4,2022-06-01T16:00:00Z,27.2139,-90.2855,1342.0,4.3,11113222
BP,ioos:station:wmo:42369:4,2022-06-01T16:20:00Z,27.2139,-90.2855,1342.0,4.3,11113222
BP,ioos:station:wmo:42369:4,2022-06-01T16:40:00Z,27.2139,-90.2855,1342.0,4.3,11113222
BP,ioos:station:wmo:42369:4,2022-06-01T17:00:00Z,27.2138,-90.2856,1342.0,4.3,11113222
BP,ioos:station:wmo:42369:4,2022-06-01T17:20:00Z,27.2137,-90.2856,1342.0,4.3,11113222
BP,ioos:station:wmo:42369:4,2022-06-01T17:40:00Z,27.2137,-90.2856,1342.0,4.3,11113222
BP,ioos:station:wmo:42369:4,2022-06-01T18:00:00Z,27.2136,-90.2859,1342.0,4.3,11113222
BP,ioos:station:wmo:42369:4,2022-06-01T18:20:00Z,27.2136,-90.2860,1342.0,4.3,11113222
BP,ioos:station:wmo:42369:4,2022-06-01T18:40:00Z,27.2136,-90.2860,1342.0,4.3,11113222
BP,ioos:station:wmo:42369:4,2022-06-01T20:00:00Z,27.2135,-90.2862,1342.0,4.3,11113222
BP,ioos:station:wmo:42369:4,2022-06-01T20:40:00Z,27.2135,-90.2862,1342.0,4.3,11113222
BP,ioos:station:wmo:42369:4,2022-06-01T21:00:00Z,27.2136,-90.2863,1342.0,4.3,11113222
BP,ioos:station:wmo:42369:4,2022-06-01T21:20:00Z,27.2136,-90.2863,1342.0,4.3,11113222
BP,ioos:station:wmo:42369:4,2022-06-01T21:40:00Z,27.2136,-90.2863,1342.0,4.3,11113222
BP,ioos:station:wmo:42369:4,2022-06-01T22:00:00Z,27.2136,-90.2863,1342.0,4.3,11113222
BP,ioos:station:wmo:42369:4,2022-06-01T22:20:00Z,27.2135,-90.2864,1342.0,4.3,11113222
BP,ioos:station:wmo:42369:4,2022-06-01T23:00:00Z,27.2136,-90.2863,1342.0,4.3,11113222
BP,ioos:station:wmo:42369:4,2022-06-01T23:20:00Z,27.2136,-90.2863,1342.0,4.3,11113222
BP,ioos:station:wmo:42369:4,2022-06-01T23:40:00Z,27.2136,-90.2861,1342.0,4.3,11113222
BP,ioos:station:wmo:42369:4,2022-06-02T00:00:00Z,27.2137,-90.2860,1342.0,4.3,11113222
BP,ioos:station:wmo:42369:4,2022-06-02T00:20:00Z,27.2137,-90.2859,1342.0,4.3,11113222
BP,ioos:station:wmo:42369:4,2022-06-02T00:40:00Z,27.2138,-90.2859,1342.0,4.3,11113222
BP,ioos:station:wmo:42369:4,2022-06-02T01:00:00Z,27.2138,-90.2856,1342.0,4.3,11113222
BP,ioos:station:wmo:42369:4,2022-06-02T01:20:00Z,27.2138,-90.2856,1342.0,4.3,11113222
BP,ioos:station:wmo:42369:4,2022-06-02T02:00:00Z,27.2139,-90.2856,1342.0,4.3,11113222
BP,ioos:station:wmo:42369:4,2022-06-02T02:20:00Z,27.2139,-90.2856,1342.0,4.3,11113222
BP,ioos:station:wmo:42369:4,2022-06-02T02:40:00Z,27.2139,-90.2857,1342.0,4.3,11113222
BP,ioos:station:wmo:42369:4,2022-06-02T03:20:00Z,27.2140,-90.2858,1342.0,4.3,11113222
BP,ioos:station:wmo:42369:4,2022-06-02T03:40:00Z,27.2139,-90.2858,1342.0,4.3,11113222
BP,ioos:station:wmo:42369:4,2022-06-02T04:00:00Z,27.2140,-90.2859,1342.0,4.3,11113222
BP,ioos:station:wmo:42369:4,2022-06-02T04:20:00Z,27.2140,-90.2860,1342.0,4.3,11113222
BP,ioos:station:wmo:42369:4,2022-06-02T05:00:00Z,27.2140,-90.2860,1342.0,4.3,11113222
BP,ioos:station:wmo:42369:4,2022-06-02T05:20:00Z,27.2140,-90.2860,1342.0,4.3,11113222
BP,ioos:station:wmo:42369:4,2022-06-02T05:40:00Z,27.2140,-90.2860,1342.0,4.3,11113222
BP,ioos:station:wmo:42369:4,2022-06-02T06:00:00Z,27.2139,-90.2860,1342.0,4.3,11113222
BP,ioos:station:wmo:42369:4,2022-06-02T06:40:00Z,27.2139,-90.2860,1342.0,4.3,11113222
BP,ioos:station:wmo:42369:4,2022-06-02T07:00:00Z,27.2140,-90.2860,1342.0,4.3,11113222
BP,ioos:station:wmo:42369:4,2022-06-02T07:20:00Z,27.2139,-90.2861,1342.0,4.3,11113222
BP,ioos:station:wmo:42369:4,2022-06-02T07:40:00Z,27.2140,-90.2861,1342.0,4.3,11113222
BP,ioos:station:wmo:42369:4,2022-06-02T08:20:00Z,27.2141,-90.2860,1342.0,4.3,11113222
BP,ioos:station:wmo:42369:4,2022-06-02T09:00:00Z,27.2142,-90.2856,1342.0,4.3,11113222
BP,ioos:station:wmo:42369:4,2022-06-02T09:40:00Z,27.2142,-90.2854,1342.0,4.3,11113222
BP,ioos:station:wmo:42369:4,2022-06-02T10:20:00Z,27.2144,-90.2853,1342.0,4.3,11113222
BP,ioos:station:wmo:42369:4,2022-06-02T11:00:00Z,27.2143,-90.2853,1342.0,4.3,11113222
BP,ioos:station:wmo:42369:4,2022-06-02T11:20:00Z,27.2143,-90.2853,1342.0,4.3,11113222
BP,ioos:station:wmo:42369:4,2022-06-02T11:40:00Z,27.2143,-90.2853,1342.0,4.3,11113222
BP,ioos:station:wmo:42369:4,2022-06-02T12:00:00Z,27.2143,-90.2853,1342.0,4.3,11113222
BP,ioos:station:wmo:42369:4,2022-06-02T12:20:00Z,27.2143,-90.2853,1342.0,4.3,11113222
BP,ioos:station:wmo:42369:4,2022-06-02T12:40:00Z,27.2144,-90.2850,1342.0,4.3,11113222
BP,ioos:station:wmo:42369:4,2022-06-02T13:00:00Z,27.2144,-90.2850,1342.0,4.3,11113222
BP,ioos:station:wmo:42369:4,2022-06-02T13:40:00Z,27.2143,-90.2850,1342.0,4.3,11113222
BP,ioos:station:wmo:42369:4,2022-06-02T14:00:00Z,27.2143,-90.2850,1342.0,4.3,11113222
BP,ioos:station:wmo:42369:4,2022-06-02T14:20:00Z,27.2143,-90.2850,1342.0,4.3,11113222
BP,ioos:station:wmo:42369:4,2022-06-02T14:40:00Z,27.2144,-90.2851,1342.0,4.3,11113222
BP,ioos:station:wmo:42369:4,2022-06-02T15:00:00Z,27.2144,-90.2851,1342.0,4.3,11113222
BP,ioos:station:wmo:42369:4,2022-06-02T15:40:00Z,27.2144,-90.2850,1342.0,4.3,11113222
BP,ioos:station:wmo:42369:4,2022-06-02T16:00:00Z,27.2143,-90.2849,1342.0,4.3,11113222
BP,ioos:station:wmo:42369:4,2022-06-02T16:20:00Z,27.2143,-90.2849,1342.0,4.3,11113222
BP,ioos:station:wmo:42369:4,2022-06-02T16:40:00Z,27.2142,-90.2848,1342.0,4.3,11113222
BP,ioos:station:wmo:42369:4,2022-06-02T17:00:00Z,27.2142,-90.2848,1342.0,4.3,11113222
BP,ioos:station:wmo:42369:4,2022-06-02T17:20:00Z,27.2140,-90.2849,1342.0,4.3,11113222
BP,ioos:station:wmo:42369:4,2022-06-02T17:40:00Z,27.2140,-90.2849,1342.0,4.3,11113222
BP,ioos:station:wmo:42369:4,2022-06-02T18:00:00Z,27.2139,-90.2850,1342.0,4.3,11113222
BP,ioos:station:wmo:42369:4,2022-06-02T18:20:00Z,27.2139,-90.2850,1342.0,4.3,11113222
BP,ioos:station:wmo:42369:4,2022-06-02T18:40:00Z,27.2137,-90.2853,1342.0,4.3,11113222
BP,ioos:station:wmo:42369:4,2022-06-02T19:00:00Z,27.2137,-90.2854,1342.0,4.3,11113222
BP,ioos:station:wmo:42369:4,2022-06-02T19:20:00Z,27.2137,-90.2854,1342.0,4.3,11113222
BP,ioos:station:wmo:42369:4,2022-06-02T19:40:00Z,27.2136,-90.2859,1342.0,4.3,11113222
BP,ioos:station:wmo:42369:4,2022-06-02T20:00:00Z,27.2136,-90.2858,1342.0,4.3,11113222
BP,ioos:station:wmo:42369:4,2022-06-02T20:40:00Z,27.2138,-90.2854,1342.0,4.3,11113222
BP,ioos:station:wmo:42369:4,2022-06-02T21:00:00Z,27.2139,-90.2852,1342.0,4.3,11113222
BP,ioos:station:wmo:42369:4,2022-06-02T21:20:00Z,27.2140,-90.2850,1342.0,4.3,11113222
BP,ioos:station:wmo:42369:4,2022-06-02T21:40:00Z,27.2140,-90.2849,1342.0,4.3,11113222
BP,ioos:station:wmo:42369:4,2022-06-02T22:00:00Z,27.2140,-90.2849,1342.0,4.3,11113222
BP,ioos:station:wmo:42369:4,2022-06-02T22:20:00Z,27.2139,-90.2849,1342.0,4.3,11113222
BP,ioos:station:wmo:42369:4,2022-06-02T22:40:00Z,27.2139,-90.2849,1342.0,4.3,11113222
BP,ioos:station:wmo:42369:4,2022-06-02T23:00:00Z,27.2139,-90.2849,1342.0,4.3,11113222
BP,ioos:station:wmo:42369:4,2022-06-02T23:20:00Z,27.2139,-90.2852,1342.0,4.3,11113222
BP,ioos:station:wmo:42369:4,2022-06-02T23:40:00Z,27.2139,-90.2852,1342.0,4.3,11113222
BP,ioos:station:wmo:42369:4,2022-06-03T00:40:00Z,27.2139,-90.2853,1342.0,4.3,11113222
BP,ioos:station:wmo:42369:4,2022-06-03T01:00:00Z,27.2139,-90.2851,1342.0,4.3,11113222
BP,ioos:station:wmo:42369:4,2022-06-03T01:20:00Z,27.2138,-90.2851,1342.0,4.3,11113222
BP,ioos:station:wmo:42369:4,2022-06-03T01:40:00Z,27.2140,-90.2851,1342.0,4.3,11113222
BP,ioos:station:wmo:42369:4,2022-06-03T02:00:00Z,27.2141,-90.2850,1342.0,4.3,11113222
BP,ioos:station:wmo:42369:4,2022-06-03T02:20:00Z,27.2142,-90.2849,1342.0,4.3,11113222
BP,ioos:station:wmo:42369:4,2022-06-03T02:40:00Z,27.2142,-90.2849,1342.0,4.3,11113222
BP,ioos:station:wmo:42369:4,2022-06-03T03:00:00Z,27.2143,-90.2848,1342.0,4.3,11113222
BP,ioos:station:wmo:42369:4,2022-06-03T03:20:00Z,27.2143,-90.2848,1342.0,4.3,11113222
BP,ioos:station:wmo:42369:4,2022-06-03T03:40:00Z,27.2143,-90.2848,1342.0,4.3,11113222
BP,ioos:station:wmo:42369:4,2022-06-03T04:00:00Z,27.2144,-90.2848,1342.0,4.3,11113222
BP,ioos:station:wmo:42369:4,2022-06-03T04:20:00Z,27.2144,-90.2848,1342.0,4.3,11113222
BP,ioos:station:wmo:42369:4,2022-06-03T04:40:00Z,27.2145,-90.2849,1342.0,4.3,11113222
BP,ioos:station:wmo:42369:4,2022-06-03T05:00:00Z,27.2145,-90.2850,1342.0,4.3,11113222
BP,ioos:station:wmo:42369:4,2022-06-03T05:20:00Z,27.2145,-90.2850,1342.0,4.3,11113222
BP,ioos:station:wmo:42369:4,2022-06-03T05:40:00Z,27.2145,-90.2850,1342.0,4.3,11113222
BP,ioos:station:wmo:42369:4,2022-06-03T06:00:00Z,27.2145,-90.2849,1342.0,4.3,11113222
BP,ioos:station:wmo:42369:4,2022-06-03T06:20:00Z,27.2145,-90.2850,1342.0,4.3,11113222
BP,ioos:station:wmo:42369:4,2022-06-03T06:40:00Z,27.2146,-90.2850,1342.0,4.3,11113222
BP,ioos:station:wmo:42369:4,2022-06-03T07:20:00Z,27.2146,-90.2849,1342.0,4.3,11113222
BP,ioos:station:wmo:42369:4,2022-06-03T07:40:00Z,27.2146,-90.2849,1342.0,4.3,11113222
BP,ioos:station:wmo:42369:4,2022-06-03T08:00:00Z,27.2146,-90.2849,1342.0,4.3,11113222
BP,ioos:station:wmo:42369:4,2022-06-03T08:20:00Z,27.2146,-90.2847,1342.0,4.3,11113222
BP,ioos:station:wmo:42369:4,2022-06-03T08:40:00Z,27.2146,-90.2846,1342.0,4.3,11113222
BP,ioos:station:wmo:42369:4,2022-06-03T09:00:00Z,27.2146,-90.2845,1342.0,4.3,11113222
BP,ioos:station:wmo:42369:4,2022-06-03T09:20:00Z,27.2147,-90.2842,1342.0,4.3,11113222
BP,ioos:station:wmo:42369:4,2022-06-03T09:40:00Z,27.2147,-90.2839,1342.0,4.3,11113222
BP,ioos:station:wmo:42369:4,2022-06-03T10:00:00Z,27.2148,-90.2836,1342.0,4.3,11113222
BP,ioos:station:wmo:42369:4,2022-06-03T10:20:00Z,27.2148,-90.2835,1342.0,4.3,11113222
BP,ioos:station:wmo:42369:4,2022-06-03T10:40:00Z,27.2148,-90.2832,1342.0,4.3,11113222
BP,ioos:station:wmo:42369:4,2022-06-03T11:00:00Z,27.2148,-90.2830,1342.0,4.3,11113222
BP,ioos:station:wmo:42369:4,2022-06-03T11:20:00Z,27.2148,-90.2829,1342.0,4.3,11113222
BP,ioos:station:wmo:42369:4,2022-06-03T11:40:00Z,27.2148,-90.2827,1342.0,4.3,11113222
BP,ioos:station:wmo:42369:4,2022-06-03T12:00:00Z,27.2147,-90.2824,1342.0,4.3,11113222
BP,ioos:station:wmo:42369:4,2022-06-03T12:20:00Z,27.2147,-90.2823,1342.0,4.3,11113222
BP,ioos:station:wmo:42369:4,2022-06-03T12:40:00Z,27.2146,-90.2820,1342.0,4.3,11113222
BP,ioos:station:wmo:42369:4,2022-06-03T13:00:00Z,27.2146,-90.2819,1342.0,4.3,11113222
BP,ioos:station:wmo:42369:4,2022-06-03T13:20:00Z,27.2145,-90.2816,1342.0,4.3,11113222
BP,ioos:station:wmo:42369:4,2022-06-03T13:40:00Z,27.2145,-90.2814,1342.0,4.3,11113222
BP,ioos:station:wmo:42369:4,2022-06-03T14:00:00Z,27.2144,-90.2813,1342.0,4.3,11113222
BP,ioos:station:wmo:42369:4,2022-06-03T14:20:00Z,27.2144,-90.2813,1342.0,4.3,11113222
BP,ioos:station:wmo:42369:4,2022-06-03T15:00:00Z,27.2142,-90.2814,1342.0,4.3,11113222
BP,ioos:station:wmo:42369:4,2022-06-03T15:20:00Z,27.2142,-90.2814,1342.0,4.3,11113222
BP,ioos:station:wmo:42369:4,2022-06-03T15:40:00Z,27.2141,-90.2813,1342.0,4.3,11113222
BP,ioos:station:wmo:42369:4,2022-06-03T16:00:00Z,27.2141,-90.2813,1342.0,4.3,11113222
BP,ioos:station:wmo:42369:4,2022-06-03T16:20:00Z,27.2139,-90.2817,1342.0,4.3,11113222
BP,ioos:station:wmo:42369:4,2022-06-03T16:40:00Z,27.2138,-90.2818,1342.0,4.3,11113222
BP,ioos:station:wmo:42369:4,2022-06-03T17:00:00Z,27.2138,-90.2819,1342.0,4.3,11113222
BP,ioos:station:wmo:42369:4,2022-06-03T17:20:00Z,27.2136,-90.2821,1342.0,4.3,11113222
BP,ioos:station:wmo:42369:4,2022-06-03T17:40:00Z,27.2134,-90.2825,1342.0,4.3,11113222
BP,ioos:station:wmo:42369:4,2022-06-03T18:00:00Z,27.2134,-90.2825,1342.0,4.3,11113222
BP,ioos:station:wmo:42369:4,2022-06-03T18:20:00Z,27.2132,-90.2828,1342.0,4.3,11113222
BP,ioos:station:wmo:42369:4,2022-06-03T18:40:00Z,27.2132,-90.2828,1342.0,4.3,11113222
BP,ioos:station:wmo:42369:4,2022-06-03T19:00:00Z,27.2128,-90.2832,1342.0,4.3,11113222
BP,ioos:station:wmo:42369:4,2022-06-03T19:20:00Z,27.2127,-90.2834,1342.0,4.3,11113222
BP,ioos:station:wmo:42369:4,2022-06-03T19:40:00Z,27.2125,-90.2839,1342.0,4.3,11113222
BP,ioos:station:wmo:42369:4,2022-06-03T20:00:00Z,27.2123,-90.2842,1342.0,4.3,11113222
BP,ioos:station:wmo:42369:4,2022-06-03T20:20:00Z,27.2123,-90.2842,1342.0,4.3,11113222
BP,ioos:station:wmo:42369:4,2022-06-03T20:40:00Z,27.2122,-90.2847,1342.0,4.3,11113222
BP,ioos:station:wmo:42369:4,2022-06-03T21:00:00Z,27.2122,-90.2852,1342.0,4.3,11113222
BP,ioos:station:wmo:42369:4,2022-06-03T21:20:00Z,27.2122,-90.2852,1342.0,4.3,11113222
BP,ioos:station:wmo:42369:4,2022-06-03T21:40:00Z,27.2123,-90.2855,1342.0,4.3,11113222
BP,ioos:station:wmo:42369:4,2022-06-03T22:00:00Z,27.2124,-90.2857,1342.0,4.3,11113222
BP,ioos:station:wmo:42369:4,2022-06-03T22:20:00Z,27.2124,-90.2857,1342.0,4.3,11113222
BP,ioos:station:wmo:42369:4,2022-06-03T22:40:00Z,27.2126,-90.2858,1342.0,4.3,11113222
BP,ioos:station:wmo:42369:4,2022-06-03T23:00:00Z,27.2127,-90.2858,1342.0,4.3,11113222
BP,ioos:station:wmo:42369:4,2022-06-03T23:20:00Z,27.2128,-90.2857,1342.0,4.3,11113222
BP,ioos:station:wmo:42369:4,2022-06-03T23:40:00Z,27.2129,-90.2856,1342.0,4.3,11113222
BP,ioos:station:wmo:42369:4,2022-06-04T00:00:00Z,27.2131,-90.2855,1342.0,4.3,11113222
BP,ioos:station:wmo:42369:4,2022-06-04T00:20:00Z,27.2132,-90.2855,1342.0,4.3,11113222
BP,ioos:station:wmo:42369:4,2022-06-04T00:40:00Z,27.2133,-90.2854,1342.0,4.3,11113222
BP,ioos:station:wmo:42369:4,2022-06-04T01:00:00Z,27.2134,-90.2853,1342.0,4.3,11113222
BP,ioos:station:wmo:42369:4,2022-06-04T01:20:00Z,27.2134,-90.2853,1342.0,4.3,11113222
BP,ioos:station:wmo:42369:4,2022-06-04T01:40:00Z,27.2134,-90.2852,1342.0,4.3,11113222
BP,ioos:station:wmo:42369:4,2022-06-04T02:00:00Z,27.2135,-90.2852,1342.0,4.3,11113222
BP,ioos:station:wmo:42369:4,2022-06-04T02:20:00Z,27.2135,-90.2852,1342.0,4.3,11113222
BP,ioos:station:wmo:42369:4,2022-06-04T02:40:00Z,27.2136,-90.2853,1342.0,4.3,11113222
BP,ioos:station:wmo:42369:4,2022-06-04T03:00:00Z,27.2136,-90.2853,1342.0,4.3,11113222
BP,ioos:station:wmo:42369:4,2022-06-04T03:20:00Z,27.2136,-90.2853,1342.0,4.3,11113222
BP,ioos:station:wmo:42369:4,2022-06-04T03:40:00Z,27.2138,-90.2852,1342.0,4.3,11113222
BP,ioos:station:wmo:42369:4,2022-06-04T04:00:00Z,27.2139,-90.2851,1342.0,4.3,11113222
BP,ioos:station:wmo:42369:4,2022-06-04T04:20:00Z,27.2140,-90.2850,1342.0,4.3,11113222
BP,ioos:station:wmo:42369:4,2022-06-04T04:40:00Z,27.2140,-90.2850,1342.0,4.3,11113222
BP,ioos:station:wmo:42369:4,2022-06-04T05:00:00Z,27.2141,-90.2850,1342.0,4.3,11113222
BP,ioos:station:wmo:42369:4,2022-06-04T05:20:00Z,27.2141,-90.2850,1342.0,4.3,11113222
BP,ioos:station:wmo:42369:4,2022-06-04T05:40:00Z,27.2142,-90.2850,1342.0,4.3,11113222
BP,ioos:station:wmo:42369:4,2022-06-04T06:00:00Z,27.2142,-90.2850,1342.0,4.3,11113222
BP,ioos:station:wmo:42369:4,2022-06-04T06:20:00Z,27.2143,-90.2848,1342.0,4.3,11113222
BP,ioos:station:wmo:42369:4,2022-06-04T06:40:00Z,27.2144,-90.2847,1342.0,4.3,11113222
BP,ioos:station:wmo:42369:4,2022-06-04T07:00:00Z,27.2144,-90.2846,1342.0,4.3,11113222
BP,ioos:station:wmo:42369:4,2022-06-04T07:20:00Z,27.2145,-90.2844,1342.0,4.3,11113222
BP,ioos:station:wmo:42369:4,2022-06-04T07:40:00Z,27.2145,-90.2843,1342.0,4.3,11113222
BP,ioos:station:wmo:42369:4,2022-06-04T08:20:00Z,27.2145,-90.2842,1342.0,4.3,11113222
BP,ioos:station:wmo:42369:4,2022-06-04T08:40:00Z,27.2145,-90.2840,1342.0,4.3,11113222
BP,ioos:station:wmo:42369:4,2022-06-04T09:00:00Z,27.2145,-90.2838,1342.0,4.3,11113222
BP,ioos:station:wmo:42369:4,2022-06-04T10:00:00Z,27.2145,-90.2835,1342.0,4.3,11113222
BP,ioos:station:wmo:42369:4,2022-06-04T10:20:00Z,27.2144,-90.2834,1342.0,4.3,11113222
BP,ioos:station:wmo:42369:4,2022-06-04T10:40:00Z,27.2144,-90.2833,1342.0,4.3,11113222
BP,ioos:station:wmo:42369:4,2022-06-04T11:00:00Z,27.2144,-90.2832,1342.0,4.3,11113222
BP,ioos:station:wmo:42369:4,2022-06-04T11:20:00Z,27.2143,-90.2830,1342.0,4.3,11113222
BP,ioos:station:wmo:42369:4,2022-06-04T11:40:00Z,27.2143,-90.2827,1342.0,4.3,11113222
BP,ioos:station:wmo:42369:4,2022-06-04T12:00:00Z,27.2143,-90.2826,1342.0,4.3,11113222
BP,ioos:station:wmo:42369:4,2022-06-04T12:20:00Z,27.2143,-90.2824,1342.0,4.3,11113222
BP,ioos:station:wmo:42369:4,2022-06-04T12:40:00Z,27.2142,-90.2822,1342.0,4.3,11113222
BP,ioos:station:wmo:42369:4,2022-06-04T13:00:00Z,27.2142,-90.2822,1342.0,4.3,11113222
BP,ioos:station:wmo:42369:4,2022-06-04T13:20:00Z,27.2141,-90.2818,1342.0,4.3,11113222
BP,ioos:station:wmo:42369:4,2022-06-04T13:40:00Z,27.2140,-90.2817,1342.0,4.3,11113222
BP,ioos:station:wmo:42369:4,2022-06-04T14:20:00Z,27.2137,-90.2811,1342.0,4.3,11113222
BP,ioos:station:wmo:42369:4,2022-06-04T14:40:00Z,27.2136,-90.2807,1342.0,4.3,11113222
BP,ioos:station:wmo:42369:4,2022-06-04T15:00:00Z,27.2134,-90.2803,1342.0,4.3,11113222
BP,ioos:station:wmo:42369:4,2022-06-04T15:20:00Z,27.2134,-90.2803,1342.0,4.3,11113222
BP,ioos:station:wmo:42369:4,2022-06-04T15:40:00Z,27.2126,-90.2793,1342.0,4.3,11113222
BP,ioos:station:wmo:42369:4,2022-06-04T16:00:00Z,27.2122,-90.2790,1342.0,4.3,11113222
BP,ioos:station:wmo:42369:4,2022-06-04T16:20:00Z,27.2118,-90.2787,1342.0,4.3,11113222
BP,ioos:station:wmo:42369:4,2022-06-04T16:40:00Z,27.2113,-90.2785,1342.0,4.3,11113222
BP,ioos:station:wmo:42369:4,2022-06-04T17:00:00Z,27.2108,-90.2783,1342.0,4.3,11113222
BP,ioos:station:wmo:42369:4,2022-06-04T17:20:00Z,27.2104,-90.2781,1342.0,4.3,11113222
BP,ioos:station:wmo:42369:4,2022-06-04T18:00:00Z,27.2095,-90.2778,1342.0,4.3,11113222
BP,ioos:station:wmo:42369:4,2022-06-04T18:20:00Z,27.2090,-90.2778,1342.0,4.3,11113222
BP,ioos:station:wmo:42369:4,2022-06-04T18:40:00Z,27.2085,-90.2777,1342.0,4.3,11113222
BP,ioos:station:wmo:42369:4,2022-06-04T19:00:00Z,27.2084,-90.2778,1342.0,4.3,11113222
BP,ioos:station:wmo:42369:4,2022-06-04T19:20:00Z,27.2075,-90.2775,1342.0,4.3,11113222
BP,ioos:station:wmo:42369:4,2022-06-04T19:40:00Z,27.2071,-90.2777,1342.0,4.3,11113222
BP,ioos:station:wmo:42369:4,2022-06-04T20:00:00Z,27.2062,-90.2783,1342.0,4.3,11113222
BP,ioos:station:wmo:42369:4,2022-06-04T20:20:00Z,27.2062,-90.2783,1342.0,4.3,11113222
BP,ioos:station:wmo:42369:4,2022-06-04T20:40:00Z,27.2050,-90.2792,1342.0,4.3,11113222
BP,ioos:station:wmo:42369:4,2022-06-04T21:00:00Z,27.2045,-90.2795,1342.0,4.3,11113222
BP,ioos:station:wmo:42369:4,2022-06-04T21:20:00Z,27.2033,-90.2806,1342.0,4.3,11113222
BP,ioos:station:wmo:42369:4,2022-06-04T21:40:00Z,27.2026,-90.2814,1342.0,4.3,11113222
BP,ioos:station:wmo:42369:4,2022-06-04T22:00:00Z,27.2020,-90.2827,1342.0,4.3,11113222
BP,ioos:station:wmo:42369:4,2022-06-04T22:20:00Z,27.2019,-90.2832,1342.0,4.3,11113222
BP,ioos:station:wmo:42369:4,2022-06-04T22:40:00Z,27.2018,-90.2841,1342.0,4.3,11113222
BP,ioos:station:wmo:42369:4,2022-06-04T23:00:00Z,27.2019,-90.2845,1342.0,4.3,11113222
BP,ioos:station:wmo:42369:4,2022-06-04T23:20:00Z,27.2024,-90.2857,1342.0,4.3,11113222
BP,ioos:station:wmo:42369:4,2022-06-04T23:40:00Z,27.2030,-90.2864,1342.0,4.3,11113222
BP,ioos:station:wmo:42369:4,2022-06-05T00:00:00Z,27.2042,-90.2873,1342.0,4.3,11113222
BP,ioos:station:wmo:42369:4,2022-06-05T00:20:00Z,27.2049,-90.2876,1342.0,4.3,11113222
BP,ioos:station:wmo:42369:4,2022-06-05T00:40:00Z,27.2057,-90.2878,1342.0,4.3,11113222
BP,ioos:station:wmo:42369:4,2022-06-05T01:00:00Z,27.2064,-90.2879,1342.0,4.3,11113222
BP,ioos:station:wmo:42369:4,2022-06-05T01:20:00Z,27.2087,-90.2878,1342.0,4.3,11113222
BP,ioos:station:wmo:42369:4,2022-06-05T01:40:00Z,27.2093,-90.2878,1342.0,4.3,11113222
BP,ioos:station:wmo:42369:4,2022-06-05T02:00:00Z,27.2093,-90.2878,1342.0,4.3,11113222
BP,ioos:station:wmo:42369:4,2022-06-05T02:20:00Z,27.2116,-90.2869,1342.0,4.3,11113222
BP,ioos:station:wmo:42369:4,2022-06-05T02:40:00Z,27.2116,-90.2869,1342.0,4.3,11113222
BP,ioos:station:wmo:42369:4,2022-06-05T03:00:00Z,27.2127,-90.2860,1342.0,4.3,11113222
BP,ioos:station:wmo:42369:4,2022-06-05T03:20:00Z,27.2129,-90.2858,1342.0,4.3,11113222
BP,ioos:station:wmo:42369:4,2022-06-05T03:40:00Z,27.2132,-90.2856,1342.0,4.3,11113222